User: anonymous   Login
Location: Ward Pound Ridge Reservation
(41.2500°N, 73.6000°W)
Time: 05:44:41
(UTC-05:00)
Language:

FO-29 - Orbit

View from above orbital plane
View from above orbital plane
View from above satellite
View from above satellite

Ground track
Ground track

The orbit data is extracted from the following two-line orbital elements,

1 24278U 96046B   18343.92201451 -.00000001 +00000-0 +35151-4 0  9992
2 24278 098.5135 158.4531 0350631 015.0897 346.0390 13.53087820101757
Epoch (UTC): 09 December 2018 22:07:42
Eccentricity: 0.0350631
inclination: 98.5135°
perigee height: 800 km
apogee height: 1322 km
right ascension of ascending node: 158.4531°
argument of perigee: 15.0897°
revolutions per day: 13.53087820
mean anomaly at epoch: 346.0390°
orbit number at epoch: 10175

The dashed part of the orbit path shows where the satellite is in the earth's shadow,  

DLR